Back to catalog

STARLINK-2429

AliveCommunicationsVLEO
NORAD 47838·PAYLOAD·🇺🇸 United States

Launched Mar 11, 2021 from Cape Canaveral Space Force Station

Loading…

Next Passes (next 24 hours)

TLE

FreshSource: CelesTrak SupGP

Epoch: Sep 14, 2026, 13:43 UTC

1 47838C 21018BD  26257.57201389  .00001933  00000+0  62155-4 0  2574
2 47838  53.1586  86.7340 0001290  92.0818 279.9956 15.31695749    16

Track STARLINK-2429 in real time with AllMySat

Download on the App Store